Flag for Bahamas Weather past 2 weeks in Freeport, Bahamas

Now
75 °F

Passing clouds.


Feels Like: 73 °F
Forecast: 81 / 87 °F
Wind: No wind

Location: Palm Beach International Airport

Current Time: Jun 30, 2015 at 6:54:35 AM

Latest Report: Jun 30, 2015 at 5:53 AM


Visibility: 10 mi

Pressure: 30.12 "Hg

Humidity: 94%

Dew point: 73 °F

Location of FreeportLocation

Historic Weather in Freeport — Graph

°F

Freeport temperature yesterday

Maximum temperature yesterday: 93 °F (at 1:53 PM)
Minimum temperature yesterday: 75 °F (at 5:53 AM)
Average temperature yesterday: 81 °F

Past Weeks' High & Low Weather Summary

 TemperatureHumidityPressure
High93 °F (Jun 29, 1:53 PM)94% (Jun 19, 5:53 AM)30.17 "Hg (Jun 19, 5:53 AM)
Low75 °F (Jun 29, 5:53 AM)47% (Jun 29, 1:53 PM)30.03 "Hg (Jun 28, 4:53 AM)
Average84 °F71%30.10 "Hg
* Reported Jun 15 4:53 AM — Jun 30 4:53 AM, Freeport, Weather by CustomWeather, © 2015

Note: Actual official high and low records may vary slightly from our data, if they occured in-between our weather recording intervals... More about our weather records

Advertising

Freeport weather history for previous 24 hours

 ConditionsComfort  
Time TempWeatherWind HumidityBarometerVisibility
4:53 AM
Tue, Jun 30
75 °FPassing clouds.No wind94%30.10 "Hg10 mi
3:53 AM76 °FPassing clouds.3 mph91%30.09 "Hg10 mi
2:53 AM76 °FPassing clouds.5 mph91%30.09 "Hg10 mi
1:53 AM76 °FPassing clouds.3 mph88%30.10 "Hg10 mi
12:53 AM76 °FPassing clouds.5 mph91%30.11 "Hg10 mi
11:53 PM
Mon, Jun 29
77 °FPassing clouds.3 mph90%30.12 "Hg10 mi
10:53 PM77 °FPassing clouds.3 mph90%30.11 "Hg10 mi
9:53 PM78 °FPartly cloudy.3 mph87%30.11 "Hg10 mi
8:53 PM78 °FBroken clouds.7 mph87%30.09 "Hg10 mi
7:53 PM78 °FThunderstorms. Broken clouds.5 mph87%30.11 "Hg10 mi
6:53 PM78 °FBroken clouds.9 mph84%30.11 "Hg10 mi
5:53 PM76 °FThunderstorms. Mostly cloudy.5 mph91%30.12 "Hg10 mi
4:53 PM85 °FThunderstorms. Broken clouds.7 mph61%30.08 "Hg10 mi
3:53 PM89 °FBroken clouds.16 mph63%30.06 "Hg10 mi
2:53 PM92 °FBroken clouds.5 mph56%30.05 "Hg10 mi
1:53 PM93 °FBroken clouds.8 mph47%30.08 "Hg10 mi
12:53 PM91 °FScattered clouds.13 mph50%30.10 "Hg10 mi
11:53 AM90 °FScattered clouds.10 mph54%30.09 "Hg10 mi
10:53 AM88 °FScattered clouds.9 mph57%30.09 "Hg10 mi
9:53 AM85 °FScattered clouds.7 mph65%30.10 "Hg10 mi
8:53 AM82 °FBroken clouds.6 mph74%30.09 "Hg10 mi
7:53 AM77 °FBroken clouds.3 mph90%30.07 "Hg10 mi
6:53 AM75 °FPartly cloudy.3 mph94%30.06 "Hg10 mi
Weather by CustomWeather, © 2015

See weather overviewHow to use our weather pages